Location: Fredericksburg
(30.2750°N, 98.8720°W)
Time: 05:13:05
(UTC-05:00)

Daily predictions for brighter satellites

Satellite Brightness Start Highest point End
(mag) Time Altitude Azimuth Time Altitude Azimuth Time Altitude Azimuth
USA 234 4.4 03:28:46 10° NE 03:32:36 39° NNE 03:32:36 39° NNE
CZ-4C R/B 4.5 03:46:31 17° N 03:46:31 17° N 03:48:09 10° N
ATLAS 5 CENTAUR R/B 4.3 03:51:30 18° ENE 03:51:30 18° ENE 03:53:02 10° NE
BREEZE M DEB (TANK) 4.5 04:01:30 84° WSW 04:01:52 88° NW 04:28:15 10° NE
SL-16 R/B 3.2 04:05:49 50° NE 04:05:49 50° NE 04:10:59 10° N
CENTAUR R/B 3.8 04:05:36 31° E 04:05:36 31° E 04:10:34 10° NE
Cosmos 1943 4.3 04:25:33 36° N 04:25:33 36° N 04:28:57 10° NNE
CZ-2D R/B 3.2 04:23:37 10° N 04:26:43 37° N 04:26:43 37° N
Cosmos 839 Rocket 4.5 04:22:02 10° NNW 04:29:42 66° ENE 04:36:01 10° SE
Skynet4D Del rocket 4.4 04:33:18 66° SSE 04:33:18 66° SSE 04:40:18 10° ESE
Cosmos 1709 Rocket 4.1 04:30:48 10° N 04:37:08 73° E 04:37:51 66° SE
Cosmos 2369 Rocket 2.4 04:35:07 10° NNW 04:40:42 68° ENE 04:41:03 66° E
CZ-4B R/B 4.2 04:40:12 10° NNE 04:45:07 39° E 04:46:46 31° SE
Cosmos 1733 Rocket 3.7 04:50:05 10° N 04:53:57 54° NE 04:53:57 54° NE
ARIANE 5 R/B 4.2 04:53:39 10° NNW 04:56:01 22° NW 04:56:01 22° NW
Resurs 1-4 Rocket 3.4 05:01:36 10° N 05:04:42 27° NW 05:04:42 27° NW
Cosmos 1943 Rocket 3.2 05:01:54 10° N 05:07:19 45° ENE 05:12:39 10° SE
SeaSat 1 2.9 05:03:15 10° SE 05:08:05 59° ENE 05:12:55 10° NNW
Cosmos 2263 4.1 05:06:44 10° NNW 05:12:34 89° WSW 05:18:19 10° SSE
PAYLOAD B 4.2 05:07:56 10° NNE 05:13:29 83° ESE 05:15:35 40° S
Okean O Rocket 1.6 05:15:21 10° N 05:19:41 64° WNW 05:19:41 64° WNW
Cosmos 1408 4.2 05:16:52 10° NNE 05:20:19 35° E 05:23:46 10° SSE
Cosmos 1825 3.6 05:18:12 10° NNE 05:21:45 37° E 05:25:17 10° SSE
Cosmos 1908 Rocket 4.4 05:17:56 10° N 05:22:11 49° E 05:26:22 10° SSE
Cosmos 1174 4.5 05:20:42 46° SSW 05:22:31 87° WNW 05:27:25 10° NNE
ADEOS II 3.5 05:17:43 10° NNE 05:22:33 37° E 05:27:21 10° SSE
Okean-O 4.0 05:19:00 10° NNE 05:23:06 37° E 05:27:11 10° SSE
Cosmos 1862 4.3 05:20:06 10° N 05:23:56 46° E 05:27:45 10° SSE
GPS 2-05 Rocket1 3.7 05:27:09 40° SE 05:27:09 40° SE 05:29:50 10° E
CZ-4B R/B 2.6 05:29:01 10° N 05:32:40 65° WNW 05:32:44 65° W
ATLAS 5 CENTAUR R/B 3.2 05:33:05 22° NW 05:33:18 22° NW 05:37:15 10° N
Cosmos 1933 3.2 05:32:40 58° SW 05:33:18 70° W 05:37:24 10° N
SL-27 R/B 3.3 05:34:00 38° NW 05:34:00 38° NW 05:36:49 10° N
Cosmos 1703 Rocket 3.5 05:31:31 29° S 05:33:46 85° E 05:38:15 10° N
USA 32 4.1 05:29:10 13° S 05:33:47 80° E 05:39:02 10° N
Sich 1 Rocket 3.4 05:30:46 10° N 05:35:10 85° W 05:39:31 10° S
CZ-3 R/B 3.8 04:50:55 10° W 05:38:18 64° SSW 05:47:47 10° SE
SL-08 ROCKET BODY 4.3 05:35:35 10° N 05:41:38 86° W 05:47:46 10° S
CZ-2C R/B 3.7 05:41:53 18° S 05:45:01 53° W 05:49:22 10° NNW
SL-16 R/B 4.1 05:50:55 15° WNW 05:50:55 15° WNW 05:52:49 10° NW
Aureole 3 Rocket 4.1 05:44:22 10° S 05:52:32 78° W 05:58:19 10° N
Atlas Centaur 2 2.2 05:52:50 27° SW 05:55:02 49° SSE 06:00:26 10° E
CENTAUR R/B 3.3 05:52:48 24° W 05:55:28 33° NW 06:01:24 10° N
ADEOS Rocket 3.6 05:51:19 10° N 05:59:07 83° WNW 06:06:45 10° SSW
MOZ.5/SAFIR/RUBIN 5/SL-8 4.4 05:59:30 18° SSW 06:02:04 31° W 06:06:10 10° NW
PSLV R/B 3.6 05:57:52 10° N 06:02:12 62° WNW 06:06:20 11° SSW
Cosmos 676 Rocket 4.3 05:57:10 10° S 06:02:16 68° ESE 06:07:25 10° NNE
COSMOS 2406 3.9 06:01:21 22° WSW 06:04:25 36° WNW 06:09:43 10° N
Okean 2 Rocket 3.1 06:09:48 10° N 06:14:19 84° W 06:18:49 10° S
Nadezhda 1 Rocket 4.5 06:08:34 10° SSW 06:14:19 39° W 06:20:11 10° NNW
Intelsat 3F5 C 3.4 06:13:13 26° W 06:14:31 87° NNE 06:16:56 10° E
Okean 1-7 3.3 06:12:10 10° SSW 06:16:16 45° W 06:20:26 10° N
OAO 3 Copernicus 4.3 06:14:48 10° WNW 06:19:53 86° NNE 06:24:55 10° ESE
Cosmos 407 Rocket 3.7 06:16:59 10° SSW 06:22:00 52° WNW 06:27:07 10° N
Cosmos 2181 Rocket 4.1 06:16:48 10° S 06:23:15 84° W 06:29:41 10° N
Meteor PRIRODA 4.0 06:19:42 10° N 06:23:18 45° WNW 06:26:54 10° SSW
Cosmos 2369 Rocket 4.1 06:22:28 10° W 06:22:32 10° W 06:22:32 10° W
AVUM R/B 4.0 06:30:33 11° SW 06:33:16 32° WNW 06:36:15 10° N
Cosmos 1674 Rocket 4.2 06:30:48 10° S 06:35:11 61° E 06:39:34 10° NNE
CZ-4B R/B 4.2 06:32:52 10° N 06:37:18 60° WNW 06:41:38 10° SSW
Cosmos 1782 Rocket 4.3 06:35:22 10° NNW 06:39:09 30° W 06:42:55 10° SSW
Cosmos 2082 Rocket 3.4 06:35:17 10° S 06:40:41 46° ESE 06:46:06 10° NNE
COSMOS 2487 3.8 06:38:39 10° SW 06:41:36 23° WNW 06:44:34 10° NNW
Timation 2 Rocket 4.3 06:37:00 10° S 06:43:19 71° ESE 06:49:23 10° NNE
Cosmos 2154 Rocket 4.3 06:39:37 10° NNW 06:45:36 46° W 06:51:36 10° SSW
Cosmos 1140 Rocket 3.5 06:41:56 10° SSW 06:47:02 86° WNW 06:52:11 10° NNE
Meteor 2-10 Rocket 3.9 06:42:02 10° SSW 06:47:43 57° W 06:53:23 10° N
